Tupelo, MS

8:33 AM CDT on May 24, 2017 (GMT -0500)
Tupelo Regional

Weather History for KTUP - March, 2013

Change the Weather History Date:

Monday, March 4, 2013

  Actual Average Record
Temperature  
Mean Temperature 50 °F 51 °F  
Max Temperature 66 °F 62 °F 82 °F (1976)
Min Temperature 33 °F 40 °F 16 °F (1943)
Degree Days  
Heating Degree Days 15 15  
Month to date heating degree days 102 60  
Since 1 July heating degree days 2328 2491  
Cooling Degree Days 0 0  
Month to date cooling degree days 0 0  
Year to date cooling degree days 6 2  
Growing Degree Days 1 (Base 50)    
Moisture  
Dew Point 33 °F    
Average Humidity 53    
Maximum Humidity 75    
Minimum Humidity 31    
Precipitation  
Precipitation 0.00 in 0.17 in 2.54 in (1977)
Month to date precipitation T 0.70  
Year to date precipitation 12.43 10.14  
Snow  
Snow 0.00 in 0.10 in - ()
Month to date snowfall T 0.1  
Since 1 July snowfall T 1.9  
Snow Depth 0.00 in    
Sea Level Pressure  
Sea Level Pressure 29.96 in    
Wind  
Wind Speed 11 mph (South)    
Max Wind Speed 23 mph    
Max Gust Speed 33 mph    
Visibility 10 miles    
Events      
T = Trace of Precipitation, MM = Missing Value Source: NWS Daily Summary

Daily Weather History Graph

Daily Weather History Graph

Search for Another Location

Airport or City:

Trip Planner

Search our weather history database for the weather conditions in past years. The results will help you decide how hot, cold, wet, or windy it might be!

Date:

Astronomy

Mar. 04, 2013 Rise Set
Actual Time 6:19 AM CST 5:54 PM CST
Civil Twilight 5:54 AM CST 6:19 PM CST
Nautical Twilight 5:25 AM CST 6:48 PM CST
Astronomical Twilight 4:56 AM CST 7:17 PM CST
Moon 12:18 AM CST (3/4) 10:46 AM CST (3/4)
Length of Visible Light 12h 24m
Length of Day
11h 34m
Waning Gibbous, 52% of the Moon is Illuminated
Mar 4
Waning Gibbous
Mar 4
Last Quarter
Mar 11
New
Mar 19
First Quarter
Mar 27
Full

Hourly Weather History & Observations

Time (CST) Temp. Windchill Dew Point Humidity Pressure Visibility Wind Dir Wind Speed Gust Speed Precip Events Conditions
12:53 AM 34.0 °F - 26.1 °F 73% 30.12 in 10.0 mi Calm Calm - N/A   Clear
1:53 AM 33.1 °F - 26.1 °F 75% 30.11 in 10.0 mi Calm Calm - N/A   Clear
2:53 AM 34.0 °F 31.0 °F 24.1 °F 67% 30.10 in 10.0 mi South 3.5 mph - N/A   Clear
3:53 AM 34.0 °F 29.8 °F 24.1 °F 67% 30.09 in 10.0 mi South 4.6 mph - N/A   Clear
4:53 AM 35.1 °F 30.1 °F 24.1 °F 64% 30.09 in 10.0 mi South 5.8 mph - N/A   Clear
5:53 AM 36.0 °F 32.1 °F 23.0 °F 59% 30.09 in 10.0 mi South 4.6 mph - N/A   Clear
6:53 AM 36.0 °F 31.1 °F 23.0 °F 59% 30.09 in 10.0 mi South 5.8 mph - N/A   Clear
7:53 AM 39.9 °F 33.9 °F 24.1 °F 53% 30.09 in 10.0 mi South 9.2 mph - N/A   Clear
8:53 AM 46.0 °F 40.6 °F 26.1 °F 46% 30.07 in 10.0 mi South 11.5 mph - N/A   Clear
9:53 AM 52.0 °F - 30.0 °F 43% 30.06 in 10.0 mi South 15.0 mph 23.0 mph N/A   Clear
10:53 AM 57.0 °F - 30.9 °F 37% 30.03 in 10.0 mi South 15.0 mph - N/A   Clear
11:53 AM 60.1 °F - 32.0 °F 35% 29.98 in 10.0 mi South 19.6 mph 24.2 mph N/A   Clear
12:53 PM 62.1 °F - 33.1 °F 34% 29.94 in 10.0 mi SSW 19.6 mph 29.9 mph N/A   Clear
1:53 PM 64.0 °F - 33.1 °F 31% 29.89 in 10.0 mi South 17.3 mph 25.3 mph N/A   Clear
2:53 PM 63.0 °F - 33.1 °F 33% 29.86 in 10.0 mi South 16.1 mph 26.5 mph N/A   Clear
3:53 PM 64.9 °F - 34.0 °F 32% 29.81 in 10.0 mi South 12.7 mph 24.2 mph N/A   Clear
4:53 PM 66.0 °F - 36.0 °F 33% 29.83 in 10.0 mi SSW 18.4 mph 28.8 mph N/A   Clear
5:53 PM 61.0 °F - 36.0 °F 39% 29.84 in 10.0 mi South 12.7 mph - N/A   Clear
6:53 PM 59.0 °F - 36.0 °F 42% 29.85 in 10.0 mi South 6.9 mph - N/A   Clear
7:53 PM 60.1 °F - 37.9 °F 44% 29.85 in 10.0 mi South 9.2 mph - N/A   Overcast
8:53 PM 60.1 °F - 41.0 °F 49% 29.88 in 10.0 mi South 9.2 mph - N/A   Overcast
9:53 PM 59.0 °F - 44.1 °F 58% 29.88 in 10.0 mi South 12.7 mph - N/A   Overcast
10:53 PM 57.9 °F - 45.0 °F 62% 29.86 in 10.0 mi SSW 15.0 mph - N/A   Overcast
11:53 PM 57.0 °F - 46.0 °F 67% 29.86 in 10.0 mi SSW 11.5 mph - N/A   Overcast